QPF
0.01 0.01 0.02 0.03 0.03 0.02 0.02 0.01 0.01 0.01 0.01 0.01 0.02 0.02 0.02 0.01 0.01 0.02 0.04 0.04 0.06 0.06 0.05 0.04 0.04 0.04 0.05 0.07 0.09 0.09 0.13 0.21 0.13 0.10 0.10 0.11 0.11 0.09 0.10 0.08 0.04 0.03 0.07
0.01 0.01 0.02 0.03 0.03 0.02 0.02 0.01 0.01 0.01 0.01 0.02 0.02 0.02 0.02 0.02 0.01 0.02 0.03 0.03 0.05 0.05 0.04 0.05 0.05 0.04 0.05 0.07 0.08 0.10 0.10 0.10 0.09 0.12 0.13 0.14 0.13 0.13 0.11 0.07 0.03 0.03 0.07
0.00 0.01 0.01 0.02 0.03 0.02 0.02 0.01 0.01 0.01 0.01 0.02 0.02 0.02 0.02 0.02 0.02 0.01 0.03 0.03 0.04 0.06 0.04 0.04 0.06 0.08 0.08 0.07 0.07 0.11 0.14 0.15 0.13 0.12 0.15 0.14 0.14 0.14 0.12 0.07 0.05 0.04 0.06
0.00 0.00 0.01 0.02 0.03 0.02 0.02 0.02 0.02 0.02 0.02 0.02 0.02 0.02 0.02 0.02 0.02 0.02 0.02 0.02 0.03 0.04 0.04 0.05 0.06 0.08 0.07 0.07 0.10 0.12 0.11 0.13 0.15 0.13 0.10 0.10 0.11 0.11 0.11 0.08 0.08 0.07 0.07
0.00 0.01 0.01 0.02 0.02 0.02 0.02 0.02 0.02 0.02 0.02 0.03 0.02 0.02 0.02 0.02 0.02 0.02 0.02 0.02 0.02 0.03 0.03 0.04 0.06 0.07 0.07 0.07 0.08 0.08 0.08 0.09 0.11 0.09 0.06 0.09 0.10 0.11 0.10 0.08 0.08 0.07 0.07
0.01 0.02 0.02 0.02 0.03 0.03 0.02 0.02 0.01 0.02 0.02 0.02 0.02 0.02 0.03 0.03 0.03 0.02 0.03 0.03 0.02 0.03 0.04 0.05 0.06 0.07 0.07 0.08 0.09 0.07 0.06 0.06 0.09 0.04 0.04 0.07 0.08 0.10 0.10 0.08 0.05 0.05 0.06
0.02 0.03 0.02 0.02 0.03 0.03 0.02 0.01 0.01 0.01 0.02 0.02 0.02 0.02 0.02 0.03 0.03 0.02 0.02 0.03 0.03 0.03 0.04 0.04 0.06 0.06 0.06 0.09 0.09 0.06 0.04 0.05 0.04 0.03 0.03 0.04 0.06 0.09 0.13 0.12 0.09 0.06 0.05
0.04 0.02 0.02 0.02 0.03 0.04 0.02 0.02 0.01 0.01 0.02 0.03 0.03 0.03 0.02 0.03 0.02 0.02 0.02 0.03 0.03 0.03 0.03 0.04 0.05 0.05 0.06 0.08 0.08 0.06 0.05 0.04 0.04 0.05 0.06 0.06 0.07 0.11 0.13 0.12 0.09 0.08 0.06
0.00 0.01 0.01 0.02 0.03 0.04 0.04 0.03 0.02 0.01 0.01 0.02 0.03 0.05 0.04 0.02 0.02 0.02 0.03 0.04 0.04 0.04 0.03 0.03 0.05 0.06 0.04 0.06 0.08 0.07 0.06 0.05 0.06 0.06 0.07 0.08 0.10 0.13 0.15 0.13 0.09 0.07 0.06
0.01 0.00 0.01 0.01 0.01 0.02 0.02 0.03 0.02 0.01 0.01 0.03 0.03 0.06 0.07 0.06 0.04 0.03 0.03 0.04 0.05 0.06 0.04 0.04 0.05 0.05 0.03 0.05 0.07 0.09 0.09 0.07 0.07 0.08 0.07 0.09 0.12 0.16 0.16 0.13 0.10 0.09 0.07
0.01 0.01 0.02 0.03 0.03 0.02 0.02 0.02 0.02 0.01 0.02 0.02 0.02 0.04 0.06 0.05 0.05 0.04 0.04 0.04 0.05 0.06 0.05 0.05 0.05 0.04 0.04 0.05 0.07 0.09 0.09 0.07 0.06 0.08 0.07 0.08 0.09 0.14 0.16 0.11 0.09 0.09 0.08
0.01 0.02 0.02 0.02 0.02 0.04 0.04 0.03 0.03 0.02 0.01 0.01 0.01 0.01 0.02 0.02 0.02 0.03 0.04 0.05 0.06 0.07 0.07 0.07 0.05 0.04 0.03 0.03 0.04 0.07 0.07 0.05 0.04 0.03 0.05 0.06 0.06 0.09 0.10 0.08 0.07 0.08 0.09
0.02 0.02 0.03 0.03 0.04 0.05 0.06 0.04 0.02 0.02 0.01 0.02 0.01 0.01 0.01 0.02 0.03 0.04 0.03 0.03 0.04 0.07 0.08 0.08 0.06 0.04 0.03 0.03 0.02 0.02 0.03 0.04 0.04 0.04 0.03 0.03 0.04 0.06 0.07 0.08 0.07 0.07 0.08
0.04 0.03 0.04 0.04 0.03 0.03 0.05 0.06 0.05 0.03 0.02 0.02 0.01 0.01 0.01 0.03 0.03 0.03 0.02 0.01 0.02 0.03 0.05 0.07 0.07 0.05 0.04 0.04 0.03 0.02 0.02 0.03 0.03 0.03 0.03 0.03 0.03 0.04 0.06 0.06 0.07 0.07 0.06
0.03 0.03 0.04 0.03 0.02 0.03 0.03 0.05 0.06 0.05 0.05 0.04 0.02 0.02 0.01 0.02 0.03 0.02 0.02 0.02 0.02 0.02 0.02 0.02 0.04 0.06 0.05 0.04 0.04 0.03 0.02 0.02 0.02 0.02 0.03 0.03 0.04 0.04 0.05 0.07 0.08 0.07 0.07
0.03 0.02 0.03 0.03 0.02 0.02 0.03 0.04 0.06 0.06 0.07 0.08 0.05 0.03 0.02 0.01 0.02 0.02 0.02 0.01 0.02 0.02 0.01 0.01 0.02 0.03 0.04 0.04 0.04 0.03 0.02 0.02 0.01 0.01 0.03 0.03 0.04 0.04 0.06 0.07 0.07 0.08 0.09
0.02 0.02 0.03 0.03 0.02 0.02 0.02 0.03 0.04 0.05 0.06 0.09 0.08 0.05 0.02 0.01 0.01 0.02 0.03 0.02 0.02 0.02 0.02 0.01 0.02 0.02 0.03 0.03 0.04 0.04 0.03 0.02 0.02 0.02 0.02 0.02 0.02 0.04 0.05 0.06 0.07 0.08 0.09
0.02 0.02 0.03 0.03 0.02 0.02 0.02 0.02 0.03 0.03 0.04 0.05 0.06 0.06 0.04 0.02 0.01 0.01 0.02 0.02 0.03 0.05 0.03 0.02 0.02 0.02 0.02 0.02 0.03 0.03 0.03 0.03 0.03 0.02 0.02 0.02 0.02 0.03 0.04 0.05 0.06 0.06 0.07
0.02 0.03 0.04 0.03 0.03 0.03 0.03 0.03 0.04 0.03 0.04 0.04 0.05 0.04 0.03 0.02 0.02 0.01 0.01 0.02 0.03 0.04 0.04 0.04 0.03 0.02 0.02 0.02 0.03 0.04 0.05 0.04 0.04 0.04 0.03 0.02 0.02 0.02 0.03 0.05 0.05 0.05 0.04
0.04 0.04 0.03 0.04 0.04 0.05 0.05 0.05 0.04 0.03 0.03 0.04 0.05 0.04 0.03 0.02 0.02 0.02 0.03 0.03 0.04 0.04 0.05 0.06 0.04 0.03 0.03 0.04 0.05 0.06 0.06 0.05 0.04 0.03 0.03 0.03 0.02 0.02 0.03 0.05 0.05 0.04 0.04
0.03 0.04 0.03 0.03 0.04 0.04 0.05 0.04 0.03 0.03 0.03 0.02 0.03 0.03 0.03 0.03 0.04 0.03 0.04 0.04 0.06 0.05 0.05 0.06 0.06 0.06 0.05 0.06 0.08 0.07 0.06 0.04 0.03 0.02 0.01 0.02 0.02 0.02 0.03 0.04 0.04 0.04 0.03
0.06 0.04 0.03 0.02 0.04 0.04 0.04 0.03 0.03 0.03 0.02 0.03 0.04 0.04 0.04 0.04 0.03 0.02 0.02 0.03 0.05 0.06 0.06 0.05 0.05 0.07 0.06 0.06 0.06 0.06 0.05 0.04 0.03 0.02 0.01 0.01 0.02 0.02 0.03 0.03 0.04 0.04 0.03
0.07 0.05 0.03 0.03 0.03 0.03 0.04 0.04 0.03 0.02 0.01 0.02 0.03 0.03 0.03 0.03 0.03 0.03 0.02 0.02 0.04 0.05 0.05 0.05 0.04 0.04 0.05 0.05 0.04 0.04 0.03 0.02 0.02 0.01 0.01 0.01 0.02 0.03 0.02 0.03 0.04 0.04 0.03
0.03 0.04 0.03 0.05 0.04 0.03 0.03 0.03 0.03 0.01 0.01 0.01 0.01 0.01 0.01 0.01 0.02 0.02 0.02 0.03 0.03 0.04 0.04 0.05 0.05 0.03 0.02 0.03 0.04 0.04 0.03 0.02 0.02 0.02 0.01 0.01 0.01 0.02 0.02 0.02 0.03 0.04 0.03
0.02 0.03 0.03 0.04 0.05 0.03 0.02 0.02 0.02 0.02 0.01 0.00 0.00 0.01 0.01 0.01 0.01 0.02 0.02 0.03 0.03 0.04 0.04 0.05 0.04 0.04 0.03 0.02 0.02 0.03 0.04 0.03 0.02 0.02 0.01 0.01 0.01 0.01 0.01 0.02 0.02 0.03 0.04
0.01 0.01 0.02 0.02 0.02 0.02 0.02 0.02 0.02 0.02 0.01 0.01 0.01 0.01 0.01 0.01 0.01 0.02 0.02 0.03 0.03 0.03 0.04 0.05 0.05 0.05 0.05 0.04 0.03 0.03 0.04 0.04 0.03 0.02 0.01 0.01 0.02 0.02 0.01 0.01 0.01 0.02 0.03
MSLP
1012.97 1012.61 1012.41 1012.39 1012.51 1012.69 1012.89 1013.02 1013.09 1013.07 1013.01 1012.96 1012.95 1013.03 1013.20 1013.44 1013.72 1014.00 1014.24 1014.42 1014.55 1014.65 1014.74 1014.84 1014.98 1015.15 1015.34 1015.53 1015.70 1015.83 1015.93 1016.00 1016.06 1016.14 1016.25 1016.39 1016.57 1016.77 1016.98 1017.19 1017.37 1017.55 1017.71
1012.80 1012.54 1012.44 1012.50 1012.67 1012.91 1013.13 1013.29 1013.37 1013.38 1013.35 1013.33 1013.35 1013.46 1013.64 1013.89 1014.16 1014.42 1014.63 1014.79 1014.89 1014.98 1015.06 1015.17 1015.30 1015.47 1015.65 1015.81 1015.94 1016.04 1016.09 1016.13 1016.17 1016.24 1016.35 1016.52 1016.72 1016.95 1017.19 1017.41 1017.61 1017.79 1017.96
1012.55 1012.39 1012.37 1012.50 1012.74 1013.02 1013.28 1013.48 1013.61 1013.66 1013.68 1013.70 1013.78 1013.92 1014.12 1014.36 1014.61 1014.83 1014.99 1015.11 1015.18 1015.25 1015.32 1015.42 1015.56 1015.73 1015.89 1016.04 1016.15 1016.22 1016.25 1016.28 1016.32 1016.40 1016.54 1016.73 1016.97 1017.22 1017.47 1017.70 1017.90 1018.09 1018.26
1012.30 1012.21 1012.27 1012.45 1012.74 1013.06 1013.36 1013.60 1013.77 1013.88 1013.95 1014.04 1014.16 1014.34 1014.55 1014.79 1015.01 1015.19 1015.31 1015.38 1015.42 1015.47 1015.53 1015.64 1015.78 1015.95 1016.12 1016.26 1016.37 1016.43 1016.46 1016.49 1016.55 1016.66 1016.83 1017.05 1017.31 1017.58 1017.84 1018.07 1018.27 1018.45 1018.61
1012.12 1012.10 1012.20 1012.43 1012.74 1013.08 1013.40 1013.67 1013.87 1014.02 1014.15 1014.29 1014.46 1014.67 1014.90 1015.13 1015.33 1015.48 1015.57 1015.61 1015.63 1015.67 1015.74 1015.85 1016.01 1016.19 1016.36 1016.51 1016.61 1016.68 1016.73 1016.78 1016.87 1017.02 1017.22 1017.47 1017.74 1018.01 1018.27 1018.48 1018.67 1018.83 1018.98
1012.10 1012.13 1012.27 1012.51 1012.82 1013.16 1013.47 1013.73 1013.94 1014.12 1014.28 1014.45 1014.66 1014.90 1015.15 1015.39 1015.58 1015.71 1015.79 1015.82 1015.84 1015.88 1015.96 1016.10 1016.27 1016.46 1016.65 1016.80 1016.91 1016.99 1017.05 1017.13 1017.25 1017.43 1017.65 1017.92 1018.19 1018.45 1018.69 1018.89 1019.05 1019.20 1019.34
1012.29 1012.35 1012.51 1012.75 1013.04 1013.34 1013.61 1013.84 1014.03 1014.20 1014.37 1014.56 1014.80 1015.06 1015.33 1015.58 1015.77 1015.91 1015.99 1016.03 1016.07 1016.13 1016.23 1016.39 1016.58 1016.78 1016.97 1017.13 1017.25 1017.33 1017.41 1017.51 1017.65 1017.84 1018.08 1018.34 1018.60 1018.84 1019.05 1019.21 1019.35 1019.48 1019.62
1012.67 1012.77 1012.93 1013.16 1013.41 1013.65 1013.86 1014.03 1014.17 1014.31 1014.46 1014.66 1014.91 1015.19 1015.48 1015.74 1015.96 1016.11 1016.21 1016.27 1016.33 1016.42 1016.55 1016.72 1016.93 1017.14 1017.33 1017.48 1017.60 1017.69 1017.77 1017.87 1018.02 1018.21 1018.44 1018.68 1018.91 1019.12 1019.29 1019.42 1019.53 1019.65 1019.79
1013.18 1013.31 1013.48 1013.69 1013.89 1014.07 1014.21 1014.31 1014.39 1014.48 1014.61 1014.81 1015.06 1015.35 1015.66 1015.94 1016.18 1016.36 1016.47 1016.56 1016.65 1016.76 1016.90 1017.09 1017.29 1017.50 1017.69 1017.83 1017.94 1018.02 1018.10 1018.20 1018.33 1018.51 1018.71 1018.92 1019.11 1019.28 1019.40 1019.50 1019.59 1019.70 1019.84
1013.71 1013.86 1014.05 1014.24 1014.41 1014.54 1014.61 1014.65 1014.68 1014.73 1014.84 1015.02 1015.28 1015.58 1015.91 1016.21 1016.46 1016.66 1016.80 1016.90 1017.00 1017.13 1017.28 1017.46 1017.67 1017.86 1018.03 1018.16 1018.26 1018.33 1018.39 1018.47 1018.59 1018.74 1018.90 1019.08 1019.23 1019.35 1019.43 1019.50 1019.57 1019.67 1019.82
1014.12 1014.31 1014.52 1014.71 1014.86 1014.96 1015.00 1015.00 1014.99 1015.02 1015.12 1015.31 1015.57 1015.89 1016.23 1016.54 1016.81 1017.02 1017.17 1017.29 1017.39 1017.51 1017.66 1017.84 1018.03 1018.21 1018.36 1018.47 1018.55 1018.61 1018.65 1018.72 1018.81 1018.93 1019.06 1019.18 1019.29 1019.37 1019.43 1019.47 1019.53 1019.62 1019.78
1014.33 1014.56 1014.80 1015.00 1015.16 1015.25 1015.28 1015.28 1015.28 1015.32 1015.43 1015.63 1015.91 1016.25 1016.60 1016.93 1017.21 1017.42 1017.57 1017.69 1017.79 1017.91 1018.04 1018.20 1018.37 1018.54 1018.67 1018.77 1018.84 1018.88 1018.91 1018.96 1019.02 1019.11 1019.20 1019.29 1019.36 1019.41 1019.44 1019.47 1019.51 1019.61 1019.76
1014.29 1014.56 1014.83 1015.07 1015.25 1015.37 1015.42 1015.45 1015.48 1015.56 1015.71 1015.94 1016.25 1016.60 1016.97 1017.31 1017.59 1017.81 1017.97 1018.09 1018.19 1018.29 1018.42 1018.56 1018.71 1018.86 1018.98 1019.07 1019.13 1019.16 1019.18 1019.21 1019.25 1019.30 1019.36 1019.41 1019.46 1019.48 1019.49 1019.51 1019.55 1019.64 1019.79
1014.04 1014.34 1014.64 1014.91 1015.13 1015.30 1015.41 1015.50 1015.59 1015.72 1015.92 1016.19 1016.53 1016.91 1017.29 1017.64 1017.93 1018.16 1018.32 1018.44 1018.55 1018.65 1018.77 1018.91 1019.05 1019.18 1019.30 1019.38 1019.43 1019.45 1019.46 1019.47 1019.49 1019.51 1019.53 1019.56 1019.57 1019.58 1019.58 1019.60 1019.64 1019.73 1019.86
1013.64 1013.96 1014.29 1014.59 1014.86 1015.08 1015.27 1015.43 1015.60 1015.80 1016.05 1016.37 1016.73 1017.12 1017.50 1017.86 1018.16 1018.40 1018.58 1018.73 1018.85 1018.97 1019.09 1019.23 1019.37 1019.50 1019.61 1019.69 1019.74 1019.75 1019.75 1019.73 1019.71 1019.70 1019.69 1019.68 1019.67 1019.67 1019.67 1019.68 1019.73 1019.81 1019.94
1013.20 1013.53 1013.87 1014.20 1014.52 1014.80 1015.06 1015.30 1015.54 1015.81 1016.11 1016.45 1016.82 1017.21 1017.59 1017.95 1018.26 1018.52 1018.73 1018.90 1019.06 1019.21 1019.36 1019.51 1019.66 1019.80 1019.90 1019.98 1020.02 1020.02 1020.00 1019.96 1019.90 1019.85 1019.80 1019.76 1019.72 1019.69 1019.69 1019.70 1019.76 1019.85 1019.97
1012.83 1013.15 1013.49 1013.85 1014.20 1014.54 1014.86 1015.17 1015.48 1015.80 1016.13 1016.47 1016.84 1017.20 1017.57 1017.91 1018.22 1018.49 1018.74 1018.96 1019.16 1019.35 1019.54 1019.72 1019.89 1020.03 1020.14 1020.21 1020.24 1020.23 1020.19 1020.12 1020.03 1019.93 1019.84 1019.75 1019.68 1019.63 1019.61 1019.64 1019.69 1019.79 1019.92
1012.57 1012.88 1013.22 1013.58 1013.97 1014.35 1014.74 1015.11 1015.46 1015.81 1016.14 1016.47 1016.80 1017.12 1017.44 1017.76 1018.06 1018.35 1018.62 1018.89 1019.14 1019.38 1019.61 1019.82 1020.01 1020.17 1020.28 1020.36 1020.38 1020.36 1020.30 1020.21 1020.08 1019.94 1019.80 1019.67 1019.56 1019.49 1019.45 1019.47 1019.54 1019.65 1019.79
1012.45 1012.74 1013.07 1013.45 1013.85 1014.28 1014.70 1015.12 1015.51 1015.86 1016.18 1016.48 1016.75 1017.01 1017.27 1017.54 1017.82 1018.11 1018.41 1018.71 1019.01 1019.29 1019.56 1019.80 1020.01 1020.18 1020.31 1020.39 1020.42 1020.40 1020.33 1020.22 1020.08 1019.91 1019.72 1019.55 1019.40 1019.29 1019.24 1019.25 1019.32 1019.44 1019.60
1012.42 1012.71 1013.04 1013.41 1013.83 1014.29 1014.75 1015.20 1015.61 1015.97 1016.27 1016.51 1016.72 1016.91 1017.09 1017.30 1017.54 1017.81 1018.12 1018.44 1018.77 1019.09 1019.39 1019.65 1019.88 1020.07 1020.21 1020.31 1020.36 1020.35 1020.30 1020.20 1020.05 1019.86 1019.66 1019.45 1019.27 1019.13 1019.05 1019.04 1019.10 1019.23 1019.40
1012.42 1012.72 1013.05 1013.43 1013.86 1014.34 1014.83 1015.30 1015.73 1016.09 1016.37 1016.57 1016.72 1016.83 1016.95 1017.09 1017.28 1017.52 1017.81 1018.13 1018.47 1018.80 1019.11 1019.39 1019.63 1019.83 1020.00 1020.12 1020.20 1020.23 1020.22 1020.15 1020.02 1019.85 1019.64 1019.42 1019.21 1019.05 1018.94 1018.90 1018.95 1019.07 1019.25
1012.40 1012.71 1013.05 1013.44 1013.88 1014.37 1014.89 1015.39 1015.84 1016.21 1016.48 1016.65 1016.75 1016.80 1016.85 1016.93 1017.06 1017.26 1017.51 1017.81 1018.14 1018.46 1018.77 1019.05 1019.29 1019.50 1019.68 1019.84 1019.96 1020.05 1020.10 1020.09 1020.01 1019.88 1019.70 1019.49 1019.27 1019.08 1018.94 1018.88 1018.90 1019.00 1019.17
1012.30 1012.65 1013.00 1013.39 1013.84 1014.35 1014.89 1015.42 1015.90 1016.29 1016.56 1016.73 1016.80 1016.81 1016.81 1016.84 1016.92 1017.06 1017.27 1017.53 1017.82 1018.11 1018.39 1018.65 1018.89 1019.10 1019.30 1019.49 1019.66 1019.82 1019.94 1020.01 1020.01 1019.94 1019.81 1019.63 1019.42 1019.22 1019.06 1018.96 1018.94 1019.01 1019.14
1012.12 1012.50 1012.88 1013.28 1013.73 1014.25 1014.81 1015.37 1015.88 1016.30 1016.60 1016.78 1016.85 1016.85 1016.83 1016.81 1016.84 1016.94 1017.10 1017.30 1017.54 1017.79 1018.03 1018.25 1018.46 1018.66 1018.87 1019.08 1019.30 1019.52 1019.72 1019.88 1019.97 1019.98 1019.92 1019.79 1019.61 1019.42 1019.24 1019.10 1019.04 1019.05 1019.15
1011.89 1012.31 1012.70 1013.11 1013.57 1014.10 1014.67 1015.25 1015.79 1016.25 1016.59 1016.80 1016.89 1016.90 1016.87 1016.83 1016.83 1016.87 1016.98 1017.14 1017.32 1017.51 1017.69 1017.87 1018.04 1018.22 1018.42 1018.64 1018.89 1019.16 1019.42 1019.66 1019.84 1019.94 1019.95 1019.89 1019.75 1019.58 1019.40 1019.24 1019.13 1019.09 1019.13
1011.65 1012.11 1012.52 1012.94 1013.40 1013.92 1014.50 1015.09 1015.66 1016.15 1016.53 1016.78 1016.90 1016.93 1016.91 1016.86 1016.83 1016.85 1016.91 1017.01 1017.13 1017.27 1017.40 1017.52 1017.65 1017.79 1017.96 1018.17 1018.43 1018.72 1019.03 1019.33 1019.58 1019.76 1019.85 1019.85 1019.78 1019.64 1019.47 1019.30 1019.16 1019.07 1019.05
Thickness
5789 5789 5786 5783 5781 5779 5777 5775 5773 5772 5771 5770 5768 5768 5767 5765 5764 5763 5762 5761 5760 5759 5758 5758 5758 5757 5756 5755 5755 5753 5752 5751 5750 5748 5747 5746 5745 5744 5743 5743 5743 5742 5741
5795 5790 5786 5783 5780 5778 5776 5774 5772 5770 5768 5767 5766 5765 5764 5763 5762 5761 5760 5759 5758 5757 5756 5755 5755 5755 5754 5754 5753 5752 5750 5749 5748 5746 5746 5745 5743 5742 5741 5741 5741 5740 5739
5794 5790 5786 5782 5779 5777 5774 5772 5770 5768 5766 5765 5763 5762 5761 5760 5759 5758 5757 5756 5755 5754 5754 5753 5753 5752 5752 5752 5751 5750 5748 5747 5746 5744 5744 5742 5741 5740 5740 5739 5738 5738 5737
5794 5789 5785 5781 5778 5775 5773 5770 5768 5766 5764 5762 5761 5759 5758 5757 5756 5755 5754 5753 5752 5752 5751 5751 5750 5750 5750 5749 5748 5747 5746 5745 5744 5743 5742 5740 5740 5739 5738 5738 5737 5736 5735
5791 5787 5783 5779 5776 5773 5771 5768 5766 5764 5762 5760 5759 5757 5755 5754 5753 5752 5751 5750 5749 5749 5749 5748 5748 5747 5747 5746 5745 5744 5743 5742 5741 5740 5739 5739 5738 5737 5737 5736 5735 5734 5733
5788 5784 5781 5777 5774 5771 5769 5766 5764 5762 5760 5757 5756 5755 5753 5752 5751 5750 5749 5748 5747 5746 5746 5745 5745 5744 5743 5742 5742 5741 5740 5740 5739 5738 5737 5736 5736 5735 5735 5734 5733 5732 5731
5784 5781 5778 5775 5772 5769 5767 5764 5762 5760 5758 5755 5754 5752 5751 5749 5748 5747 5746 5745 5744 5744 5743 5742 5741 5741 5740 5740 5739 5738 5737 5737 5736 5736 5735 5734 5734 5734 5733 5732 5732 5731 5730
5782 5778 5775 5772 5769 5767 5765 5762 5760 5758 5755 5753 5751 5749 5748 5747 5746 5744 5743 5743 5742 5741 5740 5739 5738 5738 5738 5737 5736 5736 5735 5735 5734 5734 5733 5732 5732 5732 5731 5731 5730 5729 5728
5780 5776 5772 5770 5767 5765 5763 5760 5758 5756 5753 5751 5749 5747 5745 5744 5743 5742 5741 5740 5739 5738 5737 5737 5736 5736 5735 5735 5734 5733 5733 5733 5732 5731 5731 5730 5730 5730 5730 5729 5728 5727 5726
5776 5773 5770 5767 5764 5762 5760 5758 5756 5753 5751 5749 5746 5744 5743 5741 5740 5739 5738 5737 5736 5736 5735 5734 5733 5733 5733 5732 5732 5731 5730 5730 5729 5729 5729 5729 5729 5729 5728 5727 5727 5725 5724
5771 5769 5767 5764 5761 5759 5758 5755 5753 5751 5749 5747 5744 5742 5740 5739 5737 5736 5735 5734 5733 5733 5732 5731 5730 5730 5730 5730 5729 5728 5728 5727 5727 5726 5727 5727 5727 5727 5726 5725 5725 5724 5723
5768 5766 5764 5762 5759 5757 5755 5753 5750 5748 5746 5744 5742 5740 5738 5737 5735 5733 5732 5731 5731 5730 5729 5728 5728 5727 5726 5726 5726 5725 5725 5724 5724 5724 5725 5725 5725 5725 5724 5724 5723 5722 5721
5768 5766 5763 5760 5758 5755 5753 5750 5748 5745 5743 5741 5739 5738 5736 5734 5732 5731 5729 5728 5727 5727 5726 5725 5724 5724 5723 5723 5723 5723 5722 5721 5721 5722 5723 5723 5723 5723 5723 5722 5722 5721 5720
5766 5764 5762 5759 5756 5754 5751 5749 5746 5743 5741 5739 5737 5735 5733 5731 5729 5728 5726 5725 5724 5723 5722 5722 5721 5721 5720 5720 5720 5720 5719 5719 5719 5719 5720 5721 5721 5721 5721 5721 5720 5719 5718
5765 5763 5760 5758 5754 5751 5748 5746 5744 5741 5739 5737 5735 5733 5731 5728 5726 5725 5723 5722 5721 5720 5719 5718 5717 5717 5717 5717 5717 5717 5717 5717 5717 5717 5718 5718 5718 5719 5719 5718 5718 5717 5716
5766 5762 5759 5756 5753 5750 5747 5744 5742 5740 5737 5734 5732 5730 5728 5726 5724 5722 5720 5719 5718 5717 5716 5715 5714 5714 5714 5714 5714 5714 5714 5714 5714 5715 5715 5715 5716 5716 5716 5716 5716 5715 5714
5766 5762 5758 5755 5752 5749 5746 5743 5740 5738 5735 5733 5731 5728 5726 5724 5722 5720 5718 5716 5716 5714 5713 5712 5711 5710 5710 5710 5710 5711 5711 5711 5712 5712 5713 5713 5713 5713 5714 5713 5713 5713 5712
5765 5761 5758 5756 5752 5748 5744 5741 5739 5736 5733 5731 5729 5726 5724 5722 5719 5717 5715 5714 5713 5712 5710 5709 5708 5707 5706 5706 5706 5707 5708 5708 5708 5708 5709 5710 5710 5710 5710 5710 5710 5709 5709
5764 5761 5757 5754 5750 5746 5743 5739 5736 5733 5730 5728 5726 5724 5722 5720 5718 5715 5714 5712 5711 5709 5707 5706 5704 5703 5702 5702 5702 5703 5703 5704 5704 5705 5705 5706 5706 5707 5707 5707 5706 5706 5706
5763 5759 5756 5752 5749 5744 5739 5735 5731 5729 5727 5725 5723 5721 5720 5718 5716 5714 5712 5710 5708 5706 5704 5703 5701 5700 5698 5698 5698 5698 5698 5699 5700 5700 5701 5702 5702 5703 5703 5703 5703 5702 5702
5759 5755 5753 5749 5746 5741 5736 5731 5728 5725 5724 5722 5721 5719 5718 5716 5714 5711 5709 5707 5705 5703 5701 5700 5698 5696 5694 5694 5692 5691 5693 5694 5695 5696 5697 5697 5698 5698 5699 5699 5699 5699 5700
5756 5753 5750 5747 5744 5740 5737 5733 5729 5725 5722 5720 5718 5716 5715 5713 5711 5709 5707 5705 5702 5700 5698 5696 5695 5692 5690 5689 5687 5684 5683 5686 5690 5692 5692 5693 5694 5694 5694 5695 5695 5696 5696
5753 5751 5749 5745 5742 5739 5735 5730 5725 5720 5718 5715 5714 5713 5712 5710 5708 5707 5705 5703 5700 5697 5694 5693 5692 5689 5686 5684 5684 5681 5678 5677 5680 5685 5687 5689 5689 5689 5690 5691 5691 5691 5692
5753 5750 5747 5744 5740 5737 5732 5727 5722 5717 5714 5714 5712 5710 5708 5707 5705 5703 5702 5700 5698 5695 5692 5690 5689 5687 5684 5681 5679 5679 5679 5678 5675 5675 5679 5682 5683 5684 5685 5686 5687 5687 5687
5751 5748 5744 5740 5737 5734 5730 5726 5720 5717 5714 5711 5709 5706 5705 5703 5702 5700 5698 5697 5694 5692 5690 5687 5685 5683 5682 5679 5677 5675 5673 5672 5672 5671 5671 5673 5675 5678 5680 5681 5681 5682 5682
5748 5744 5741 5737 5734 5731 5727 5723 5719 5714 5711 5707 5705 5703 5701 5699 5697 5696 5695 5693 5691 5689 5686 5683 5681 5679 5678 5676 5674 5672 5671 5669 5668 5666 5666 5666 5667 5671 5673 5675 5676 5676 5677